"Period start","avg(HW err(1)/warn(2) (#))","avg(Visibility (m))","avg(Weather code (#))","avg(Precip intensity (mm/h))","min(HW err(1)/warn(2) (#))","max(HW err(1)/warn(2) (#))","std(HW err(1)/warn(2) (#))","med(HW err(1)/warn(2) (#))","min(Visibility (m))","max(Visibility (m))","std(Visibility (m))","med(Visibility (m))","min(Weather code (#))","max(Weather code (#))","std(Weather code (#))","med(Weather code (#))","min(Precip intensity (mm/h))","max(Precip intensity (mm/h))","std(Precip intensity (mm/h))","med(Precip intensity (mm/h))"
2013-09-28 00:00:00,2,3471,55,1.68,2,2,0,2,1946,5743,1344,3018,41,71,14,54,0.15,3.30,1.23,1.60
2013-09-28 00:10:00,2,14356,41,0.22,2,2,0,2,5064,32387,8967,9750,0,67,23,41,0.00,0.70,0.23,0.15
2013-09-28 00:20:00,2,49102,0,0.00,2,2,0,2,43832,50000,1947,50000,0,0,0,0,0.00,0.00,0.00,0.00
2013-09-28 00:30:00,2,49783,0,0.00,2,2,0,2,48610,50000,431,50000,0,0,0,0,0.00,0.00,0.00,0.00
2013-09-28 00:40:00,2,44190,0,0.00,2,2,0,2,30676,50000,5808,45366,0,0,0,0,0.00,0.00,0.00,0.00
2013-09-28 00:50:00,2,43011,0,0.00,2,2,0,2,27713,50000,7180,43968,0,0,0,0,0.00,0.00,0.00,0.00
2013-09-28 01:00:00,2,47328,0,0.00,2,2,0,2,42306,50000,3050,48738,0,0,0,0,0.00,0.00,0.00,0.00
2013-09-28 01:10:00,2,43590,0,0.00,2,2,0,2,31525,50000,6854,46854,0,0,0,0,0.00,0.00,0.00,0.00
2013-09-28 01:20:00,2,40246,0,0.00,2,2,0,2,23040,50000,9727,42660,0,0,0,0,0.00,0.00,0.00,0.00
2013-09-28 01:30:00,2,40019,0,0.00,2,2,0,2,29593,48550,6556,41024,0,0,0,0,0.00,0.00,0.00,0.00
2013-09-28 01:40:00,2,34956,0,0.00,2,2,0,2,25469,48390,6268,32517,0,0,0,0,0.00,0.00,0.00,0.00
2013-09-28 01:50:00,2,39530,0,0.00,2,2,0,2,30952,48522,5543,40662,0,0,0,0,0.00,0.00,0.00,0.00
2013-09-28 02:00:00,2,49411,0,0.00,2,2,0,2,46854,50000,976,50000,0,0,0,0,0.00,0.00,0.00,0.00
2013-09-28 02:10:00,2,39093,0,0.00,2,2,0,2,28702,50000,6332,38274,0,0,0,0,0.00,0.00,0.00,0.00
2013-09-28 02:20:00,2,40639,0,0.00,2,2,0,2,24328,50000,9214,45739,0,0,0,0,0.00,0.00,0.00,0.00
2013-09-28 02:30:00,2,45765,0,0.00,2,2,0,2,35108,50000,5474,48850,0,0,0,0,0.00,0.00,0.00,0.00
2013-09-28 02:40:00,2,49414,0,0.00,2,2,0,2,47072,50000,969,50000,0,0,0,0,0.00,0.00,0.00,0.00
2013-09-28 02:50:00,2,47533,0,0.00,2,2,0,2,40217,50000,3117,48554,0,0,0,0,0.00,0.00,0.00,0.00
2013-09-28 03:00:00,2,48149,0,0.00,2,2,0,2,38573,50000,3371,50000,0,0,0,0,0.00,0.00,0.00,0.00
2013-09-28 03:10:00,2,46994,0,0.00,2,2,0,2,36907,50000,4155,49481,0,0,0,0,0.00,0.00,0.00,0.00
2013-09-28 03:20:00,2,49020,0,0.00,2,2,0,2,45158,50000,1737,50000,0,0,0,0,0.00,0.00,0.00,0.00
2013-09-28 03:30:00,2,48822,0,0.00,2,2,0,2,41507,50000,2538,50000,0,0,0,0,0.00,0.00,0.00,0.00
2013-09-28 03:40:00,2,49561,0,0.00,2,2,0,2,45613,50000,1316,50000,0,0,0,0,0.00,0.00,0.00,0.00
2013-09-28 03:50:00,2,48214,0,0.00,2,2,0,2,42494,50000,2684,50000,0,0,0,0,0.00,0.00,0.00,0.00
2013-09-28 04:00:00,2,49707,0,0.00,2,2,0,2,47074,50000,878,50000,0,0,0,0,0.00,0.00,0.00,0.00
2013-09-28 04:10:00,2,47396,0,0.00,2,2,0,2,39891,50000,3720,50000,0,0,0,0,0.00,0.00,0.00,0.00
2013-09-28 04:20:00,2,49257,0,0.00,2,2,0,2,44406,50000,1671,50000,0,0,0,0,0.00,0.00,0.00,0.00
2013-09-28 04:30:00,2,49853,0,0.00,2,2,0,2,48534,50000,440,50000,0,0,0,0,0.00,0.00,0.00,0.00
2013-09-28 04:40:00,2,49348,0,0.00,2,2,0,2,46935,50000,1159,50000,0,0,0,0,0.00,0.00,0.00,0.00
2013-09-28 04:50:00,2,49988,0,0.00,2,2,0,2,49881,50000,36,50000,0,0,0,0,0.00,0.00,0.00,0.00
2013-09-28 05:00:00,2,49018,0,0.00,2,2,0,2,42270,50000,2289,50000,0,0,0,0,0.00,0.00,0.00,0.00
2013-09-28 05:10:00,2,50000,0,0.00,2,2,0,2,50000,50000,0,50000,0,0,0,0,0.00,0.00,0.00,0.00
2013-09-28 05:20:00,2,50000,0,0.00,2,2,0,2,50000,50000,0,50000,0,0,0,0,0.00,0.00,0.00,0.00
2013-09-28 05:30:00,2,49932,0,0.00,2,2,0,2,49318,50000,205,50000,0,0,0,0,0.00,0.00,0.00,0.00
2013-09-28 05:40:00,2,48699,0,0.00,2,2,0,2,44554,50000,1883,50000,0,0,0,0,0.00,0.00,0.00,0.00
2013-09-28 05:50:00,2,49861,0,0.00,2,2,0,2,48607,50000,418,50000,0,0,0,0,0.00,0.00,0.00,0.00
2013-09-28 06:00:00,2,49794,0,0.00,2,2,0,2,47943,50000,617,50000,0,0,0,0,0.00,0.00,0.00,0.00
2013-09-28 06:10:00,2,49868,0,0.00,2,2,0,2,48684,50000,395,50000,0,0,0,0,0.00,0.00,0.00,0.00
2013-09-28 06:20:00,2,49939,0,0.00,2,2,0,2,49391,50000,183,50000,0,0,0,0,0.00,0.00,0.00,0.00
2013-09-28 06:30:00,2,50000,0,0.00,2,2,0,2,50000,50000,0,50000,0,0,0,0,0.00,0.00,0.00,0.00
2013-09-28 06:40:00,2,50000,0,0.00,2,2,0,2,50000,50000,0,50000,0,0,0,0,0.00,0.00,0.00,0.00
2013-09-28 06:50:00,2,50000,0,0.00,2,2,0,2,50000,50000,0,50000,0,0,0,0,0.00,0.00,0.00,0.00
2013-09-28 07:00:00,2,49984,0,0.00,2,2,0,2,49837,50000,49,50000,0,0,0,0,0.00,0.00,0.00,0.00
2013-09-28 07:10:00,2,49416,0,0.00,2,2,0,2,46965,50000,1044,50000,0,0,0,0,0.00,0.00,0.00,0.00
2013-09-28 07:20:00,2,49740,0,0.00,2,2,0,2,47669,50000,695,50000,0,0,0,0,0.00,0.00,0.00,0.00
2013-09-28 07:30:00,2,44074,0,0.00,2,2,0,2,36186,50000,5483,44678,0,0,0,0,0.00,0.00,0.00,0.00
2013-09-28 07:40:00,2,50000,0,0.00,2,2,0,2,50000,50000,0,50000,0,0,0,0,0.00,0.00,0.00,0.00
2013-09-28 07:50:00,2,50000,0,0.00,2,2,0,2,50000,50000,0,50000,0,0,0,0,0.00,0.00,0.00,0.00
2013-09-28 08:00:00,2,50000,0,0.00,2,2,0,2,50000,50000,0,50000,0,0,0,0,0.00,0.00,0.00,0.00
2013-09-28 08:10:00,2,50000,0,0.00,2,2,0,2,50000,50000,0,50000,0,0,0,0,0.00,0.00,0.00,0.00
2013-09-28 08:20:00,2,50000,0,0.00,2,2,0,2,50000,50000,0,50000,0,0,0,0,0.00,0.00,0.00,0.00
2013-09-28 08:30:00,2,50000,0,0.00,2,2,0,2,50000,50000,0,50000,0,0,0,0,0.00,0.00,0.00,0.00
2013-09-28 08:40:00,2,50000,0,0.00,2,2,0,2,50000,50000,0,50000,0,0,0,0,0.00,0.00,0.00,0.00
2013-09-28 08:50:00,2,50000,0,0.00,2,2,0,2,50000,50000,0,50000,0,0,0,0,0.00,0.00,0.00,0.00
2013-09-28 09:00:00,2,50000,0,0.00,2,2,0,2,50000,50000,0,50000,0,0,0,0,0.00,0.00,0.00,0.00
2013-09-28 09:10:00,2,50000,0,0.00,2,2,0,2,50000,50000,0,50000,0,0,0,0,0.00,0.00,0.00,0.00
2013-09-28 09:20:00,2,50000,0,0.00,2,2,0,2,50000,50000,0,50000,0,0,0,0,0.00,0.00,0.00,0.00
2013-09-28 09:30:00,2,50000,0,0.00,2,2,0,2,50000,50000,0,50000,0,0,0,0,0.00,0.00,0.00,0.00
2013-09-28 09:40:00,2,50000,0,0.00,2,2,0,2,50000,50000,0,50000,0,0,0,0,0.00,0.00,0.00,0.00
2013-09-28 09:50:00,2,50000,0,0.00,2,2,0,2,50000,50000,0,50000,0,0,0,0,0.00,0.00,0.00,0.00
2013-09-28 10:00:00,2,50000,0,0.00,2,2,0,2,50000,50000,0,50000,0,0,0,0,0.00,0.00,0.00,0.00
2013-09-28 10:10:00,2,50000,0,0.00,2,2,0,2,50000,50000,0,50000,0,0,0,0,0.00,0.00,0.00,0.00
2013-09-28 10:20:00,2,50000,0,0.00,2,2,0,2,50000,50000,0,50000,0,0,0,0,0.00,0.00,0.00,0.00
2013-09-28 10:30:00,2,50000,0,0.00,2,2,0,2,50000,50000,0,50000,0,0,0,0,0.00,0.00,0.00,0.00
2013-09-28 10:40:00,2,45147,0,0.00,2,2,0,2,40210,50000,3477,44112,0,0,0,0,0.00,0.00,0.00,0.00
2013-09-28 10:50:00,2,48983,0,0.00,2,2,0,2,41303,50000,2597,50000,0,0,0,0,0.00,0.00,0.00,0.00
2013-09-28 11:00:00,2,40891,0,0.00,2,2,0,2,31882,50000,6076,41834,0,0,0,0,0.00,0.00,0.00,0.00
2013-09-28 11:10:00,2,33404,0,0.00,2,2,0,2,28091,41979,4955,31704,0,0,0,0,0.00,0.00,0.00,0.00
2013-09-28 11:20:00,2,46786,0,0.00,2,2,0,2,35965,50000,4553,50000,0,0,0,0,0.00,0.00,0.00,0.00
2013-09-28 11:30:00,2,50000,0,0.00,2,2,0,2,50000,50000,0,50000,0,0,0,0,0.00,0.00,0.00,0.00
2013-09-28 11:40:00,2,50000,0,0.00,2,2,0,2,50000,50000,0,50000,0,0,0,0,0.00,0.00,0.00,0.00
2013-09-28 11:50:00,2,50000,0,0.00,2,2,0,2,50000,50000,0,50000,0,0,0,0,0.00,0.00,0.00,0.00
2013-09-28 12:00:00,2,50000,0,0.00,2,2,0,2,50000,50000,0,50000,0,0,0,0,0.00,0.00,0.00,0.00
2013-09-28 12:10:00,2,50000,0,0.00,2,2,0,2,50000,50000,0,50000,0,0,0,0,0.00,0.00,0.00,0.00
2013-09-28 12:20:00,2,50000,0,0.00,2,2,0,2,50000,50000,0,50000,0,0,0,0,0.00,0.00,0.00,0.00
2013-09-28 12:30:00,2,50000,0,0.00,2,2,0,2,50000,50000,0,50000,0,0,0,0,0.00,0.00,0.00,0.00
2013-09-28 12:40:00,2,50000,0,0.00,2,2,0,2,50000,50000,0,50000,0,0,0,0,0.00,0.00,0.00,0.00
2013-09-28 12:50:00,2,50000,0,0.00,2,2,0,2,50000,50000,0,50000,0,0,0,0,0.00,0.00,0.00,0.00
2013-09-28 13:00:00,2,50000,0,0.00,2,2,0,2,50000,50000,0,50000,0,0,0,0,0.00,0.00,0.00,0.00
2013-09-28 13:10:00,2,50000,0,0.00,2,2,0,2,50000,50000,0,50000,0,0,0,0,0.00,0.00,0.00,0.00
2013-09-28 13:20:00,2,50000,0,0.00,2,2,0,2,50000,50000,0,50000,0,0,0,0,0.00,0.00,0.00,0.00
2013-09-28 13:30:00,2,50000,0,0.00,2,2,0,2,50000,50000,0,50000,0,0,0,0,0.00,0.00,0.00,0.00
2013-09-28 13:40:00,2,50000,0,0.00,2,2,0,2,50000,50000,0,50000,0,0,0,0,0.00,0.00,0.00,0.00
2013-09-28 13:50:00,2,50000,0,0.00,2,2,0,2,50000,50000,0,50000,0,0,0,0,0.00,0.00,0.00,0.00
2013-09-28 14:00:00,2,50000,0,0.00,2,2,0,2,50000,50000,0,50000,0,0,0,0,0.00,0.00,0.00,0.00
2013-09-28 14:10:00,2,50000,0,0.00,2,2,0,2,50000,50000,0,50000,0,0,0,0,0.00,0.00,0.00,0.00
2013-09-28 14:20:00,2,50000,0,0.00,2,2,0,2,50000,50000,0,50000,0,0,0,0,0.00,0.00,0.00,0.00
2013-09-28 14:30:00,2,50000,0,0.00,2,2,0,2,50000,50000,0,50000,0,0,0,0,0.00,0.00,0.00,0.00
2013-09-28 14:40:00,2,50000,0,0.00,2,2,0,2,50000,50000,0,50000,0,0,0,0,0.00,0.00,0.00,0.00
2013-09-28 14:50:00,2,50000,0,0.00,2,2,0,2,50000,50000,0,50000,0,0,0,0,0.00,0.00,0.00,0.00
2013-09-28 15:00:00,2,50000,0,0.00,2,2,0,2,50000,50000,0,50000,0,0,0,0,0.00,0.00,0.00,0.00
2013-09-28 15:10:00,2,50000,0,0.00,2,2,0,2,50000,50000,0,50000,0,0,0,0,0.00,0.00,0.00,0.00
2013-09-28 15:20:00,2,50000,0,0.00,2,2,0,2,50000,50000,0,50000,0,0,0,0,0.00,0.00,0.00,0.00
2013-09-28 15:30:00,2,50000,0,0.00,2,2,0,2,50000,50000,0,50000,0,0,0,0,0.00,0.00,0.00,0.00
2013-09-28 15:40:00,2,50000,0,0.00,2,2,0,2,50000,50000,0,50000,0,0,0,0,0.00,0.00,0.00,0.00
2013-09-28 15:50:00,2,50000,0,0.00,2,2,0,2,50000,50000,0,50000,0,0,0,0,0.00,0.00,0.00,0.00
2013-09-28 16:00:00,2,50000,0,0.00,2,2,0,2,50000,50000,0,50000,0,0,0,0,0.00,0.00,0.00,0.00
2013-09-28 16:10:00,2,50000,0,0.00,2,2,0,2,50000,50000,0,50000,0,0,0,0,0.00,0.00,0.00,0.00
2013-09-28 16:20:00,2,50000,0,0.00,2,2,0,2,50000,50000,0,50000,0,0,0,0,0.00,0.00,0.00,0.00
2013-09-28 16:30:00,2,50000,0,0.00,2,2,0,2,50000,50000,0,50000,0,0,0,0,0.00,0.00,0.00,0.00
2013-09-28 16:40:00,2,50000,0,0.00,2,2,0,2,50000,50000,0,50000,0,0,0,0,0.00,0.00,0.00,0.00
2013-09-28 16:50:00,2,50000,0,0.00,2,2,0,2,50000,50000,0,50000,0,0,0,0,0.00,0.00,0.00,0.00
2013-09-28 17:00:00,2,50000,0,0.00,2,2,0,2,50000,50000,0,50000,0,0,0,0,0.00,0.00,0.00,0.00
2013-09-28 17:10:00,2,50000,0,0.00,2,2,0,2,50000,50000,0,50000,0,0,0,0,0.00,0.00,0.00,0.00
2013-09-28 17:20:00,2,50000,0,0.00,2,2,0,2,50000,50000,0,50000,0,0,0,0,0.00,0.00,0.00,0.00
2013-09-28 17:30:00,2,50000,0,0.00,2,2,0,2,50000,50000,0,50000,0,0,0,0,0.00,0.00,0.00,0.00
2013-09-28 17:40:00,2,50000,0,0.00,2,2,0,2,50000,50000,0,50000,0,0,0,0,0.00,0.00,0.00,0.00
2013-09-28 17:50:00,2,50000,0,0.00,2,2,0,2,50000,50000,0,50000,0,0,0,0,0.00,0.00,0.00,0.00
2013-09-28 18:00:00,2,50000,0,0.00,2,2,0,2,50000,50000,0,50000,0,0,0,0,0.00,0.00,0.00,0.00
2013-09-28 18:10:00,2,50000,0,0.00,2,2,0,2,50000,50000,0,50000,0,0,0,0,0.00,0.00,0.00,0.00
2013-09-28 18:20:00,2,50000,0,0.00,2,2,0,2,50000,50000,0,50000,0,0,0,0,0.00,0.00,0.00,0.00
2013-09-28 18:30:00,2,50000,0,0.00,2,2,0,2,50000,50000,0,50000,0,0,0,0,0.00,0.00,0.00,0.00
2013-09-28 18:40:00,2,50000,0,0.00,2,2,0,2,50000,50000,0,50000,0,0,0,0,0.00,0.00,0.00,0.00
2013-09-28 18:50:00,2,50000,0,0.00,2,2,0,2,50000,50000,0,50000,0,0,0,0,0.00,0.00,0.00,0.00
2013-09-28 19:00:00,2,50000,0,0.00,2,2,0,2,50000,50000,0,50000,0,0,0,0,0.00,0.00,0.00,0.00
2013-09-28 19:10:00,2,50000,0,0.00,2,2,0,2,50000,50000,0,50000,0,0,0,0,0.00,0.00,0.00,0.00
2013-09-28 19:20:00,2,50000,0,0.00,2,2,0,2,50000,50000,0,50000,0,0,0,0,0.00,0.00,0.00,0.00
2013-09-28 19:30:00,2,50000,0,0.00,2,2,0,2,50000,50000,0,50000,0,0,0,0,0.00,0.00,0.00,0.00
2013-09-28 19:40:00,2,50000,0,0.00,2,2,0,2,50000,50000,0,50000,0,0,0,0,0.00,0.00,0.00,0.00
2013-09-28 19:50:00,2,50000,0,0.00,2,2,0,2,50000,50000,0,50000,0,0,0,0,0.00,0.00,0.00,0.00
2013-09-28 20:00:00,2,50000,0,0.00,2,2,0,2,50000,50000,0,50000,0,0,0,0,0.00,0.00,0.00,0.00
2013-09-28 20:10:00,2,50000,0,0.00,2,2,0,2,50000,50000,0,50000,0,0,0,0,0.00,0.00,0.00,0.00
2013-09-28 20:20:00,2,50000,0,0.00,2,2,0,2,50000,50000,0,50000,0,0,0,0,0.00,0.00,0.00,0.00
2013-09-28 20:30:00,2,50000,0,0.00,2,2,0,2,50000,50000,0,50000,0,0,0,0,0.00,0.00,0.00,0.00
2013-09-28 20:40:00,2,50000,0,0.00,2,2,0,2,50000,50000,0,50000,0,0,0,0,0.00,0.00,0.00,0.00
2013-09-28 20:50:00,2,50000,0,0.00,2,2,0,2,50000,50000,0,50000,0,0,0,0,0.00,0.00,0.00,0.00
2013-09-28 21:00:00,2,50000,0,0.00,2,2,0,2,50000,50000,0,50000,0,0,0,0,0.00,0.00,0.00,0.00
2013-09-28 21:10:00,2,50000,0,0.00,2,2,0,2,50000,50000,0,50000,0,0,0,0,0.00,0.00,0.00,0.00
2013-09-28 21:20:00,2,50000,0,0.00,2,2,0,2,50000,50000,0,50000,0,0,0,0,0.00,0.00,0.00,0.00
2013-09-28 21:30:00,2,50000,0,0.00,2,2,0,2,50000,50000,0,50000,0,0,0,0,0.00,0.00,0.00,0.00
2013-09-28 21:40:00,2,50000,0,0.00,2,2,0,2,50000,50000,0,50000,0,0,0,0,0.00,0.00,0.00,0.00
2013-09-28 21:50:00,2,50000,0,0.00,2,2,0,2,50000,50000,0,50000,0,0,0,0,0.00,0.00,0.00,0.00
2013-09-28 22:00:00,2,50000,0,0.00,2,2,0,2,50000,50000,0,50000,0,0,0,0,0.00,0.00,0.00,0.00
2013-09-28 22:10:00,2,50000,0,0.00,2,2,0,2,50000,50000,0,50000,0,0,0,0,0.00,0.00,0.00,0.00
2013-09-28 22:20:00,2,50000,0,0.00,2,2,0,2,50000,50000,0,50000,0,0,0,0,0.00,0.00,0.00,0.00
2013-09-28 22:30:00,2,49508,0,0.00,2,2,0,2,46402,50000,1108,50000,0,0,0,0,0.00,0.00,0.00,0.00
2013-09-28 22:40:00,2,49745,0,0.00,2,2,0,2,47447,50000,766,50000,0,0,0,0,0.00,0.00,0.00,0.00
2013-09-28 22:50:00,2,23307,2,0.00,2,2,0,2,2923,50000,21850,7991,0,10,4,0,0.00,0.00,0.00,0.00
2013-09-28 23:00:00,2,31514,10,0.00,2,2,0,2,10602,50000,15703,33989,10,10,0,10,0.00,0.00,0.00,0.00
2013-09-28 23:10:00,2,25423,0,0.00,2,2,0,2,4866,50000,15094,23144,0,0,0,0,0.00,0.00,0.00,0.00
2013-09-28 23:20:00,2,49998,0,0.00,2,2,0,2,49985,50000,4,50000,0,0,0,0,0.00,0.00,0.00,0.00
2013-09-28 23:30:00,2,50000,0,0.00,2,2,0,2,50000,50000,0,50000,0,0,0,0,0.00,0.00,0.00,0.00
2013-09-28 23:40:00,2,48568,0,0.00,2,2,0,2,43227,50000,2432,50000,0,0,0,0,0.00,0.00,0.00,0.00
2013-09-28 23:50:00,2,49247,0,0.00,2,2,0,2,45902,50000,1333,50000,0,0,0,0,0.00,0.00,0.00,0.00
